This is the latest recevied weather packets stored in our database for station/object KN6KDD. If no packets are shown the sender has not sent any weather packets the latest 1 day(s).
| Time | Temp. | Humidity | Pressure | Rain* | Wind** | Luminosity | Snow |
|---|---|---|---|---|---|---|---|
| 1778000305 | 11.67° C | 91% | 1354.8 hPa | 0 mm | 1.34 m/s, 269° | 147 W/m² | - |
| 1778000000 | 12.22° C | 91% | 1354.7 hPa | 0 mm | 1.34 m/s, 334° | 137 W/m² | - |
| 1777999696 | 12.22° C | 93% | 1354.7 hPa | 0 mm | 0.45 m/s, 323° | 132 W/m² | - |
| 1777999394 | 12.22° C | 93% | 1354.5 hPa | 0 mm | 0.45 m/s, 316° | 136 W/m² | - |
| 1777999092 | 11.67° C | 92% | 1354.5 hPa | 0 mm | 0.89 m/s, 309° | 157 W/m² | - |
| 1777998790 | 11.67° C | 90% | 1354.5 hPa | 0 mm | 1.34 m/s, 267° | 160 W/m² | - |
| 1777998488 | 11.67° C | 90% | 1354.4 hPa | 0 mm | 1.34 m/s, 301° | 178 W/m² | - |
| 1777998184 | 11.67° C | 93% | 1354.4 hPa | 0 mm | 0.45 m/s, 332° | 180 W/m² | - |
| 1777997881 | 11.67° C | 93% | 1354.4 hPa | 0 mm | 0.45 m/s, 356° | 140 W/m² | - |
| 1777997578 | 11.67° C | 92% | 1354.2 hPa | 0 mm | 1.34 m/s, 261° | 134 W/m² | - |
| 1777997275 | 11.67° C | 92% | 1354.2 hPa | 0 mm | 0.89 m/s, 275° | 120 W/m² | - |
| 1777996973 | 11.67° C | 92% | 1354.2 hPa | 0 mm | 1.34 m/s, 301° | 233 W/m² | - |
| 1777996670 | 11.67° C | 94% | 1354.2 hPa | 0 mm | 2.68 m/s, 293° | 143 W/m² | - |
| 1777996366 | 11.67° C | 95% | 1354.2 hPa | 0 mm | 1.34 m/s, 346° | 160 W/m² | - |
| 1777996062 | 11.67° C | 94% | 1354 hPa | 0 mm | 1.34 m/s, 286° | 148 W/m² | - |
| 1777995759 | 11.11° C | 93% | 1354.2 hPa | 0 mm | 0.89 m/s, 251° | 146 W/m² | - |
| 1777995455 | 11.67° C | 94% | 1354 hPa | 0 mm | 1.34 m/s, 273° | 229 W/m² | - |
| 1777995152 | 11.11° C | 94% | 1353.9 hPa | 0 mm | 0.45 m/s, 251° | 220 W/m² | - |
| 1777994849 | 10.56° C | 95% | 1353.9 hPa | 0 mm | 1.79 m/s, 298° | 212 W/m² | - |
| 1777994546 | 10.56° C | 95% | 1353.9 hPa | 0 mm | 1.34 m/s, 269° | 72 W/m² | - |
| 1777994240 | 10.56° C | 96% | 1354.2 hPa | 0 mm | 0.45 m/s, 227° | 78 W/m² | - |
| 1777993938 | 10.56° C | 96% | 1353.9 hPa | 0 mm | 0 m/s | 87 W/m² | - |
| 1777993634 | 10.56° C | 96% | 1353.6 hPa | 0 mm | 1.34 m/s, 292° | 93 W/m² | - |
| 1777993332 | 10.56° C | 97% | 1353.8 hPa | 0 mm | 0.45 m/s, 299° | 139 W/m² | - |
| 1777993032 | 10.56° C | 97% | 1353.6 hPa | 0 mm | 0.89 m/s, 273° | 105 W/m² | - |
* Rain latest hour (hover to see other rain measurements)
** Current wind speed in m/s (hover to see current wind gust speed)